Погода в Орске

Погода в Орске : погода сейчас, прогноз погоды и архив. Всё, что Вы хотите узнать о погоде в Орске!

Поиск расширенной информации на нашем сайте:

Другие новости

Новости СМИ2

Главная страница сайта

Новости сайта

03.07.2017

Напоминаем, что на нашем специализированном сайте Метеоцентр.Азия вы можете получить высокодетализированные автоматические прогнозы погоды по пунктам России, СНГ и мира в авиационном формате (включающие направление и скорость ветра, видимость, явления погоды, количество и форму облачности, нижнюю и верхнюю границу облачности).


Погода в Орске - сегодня

Время (UTC), дата Ветер
(°,м/с) 
Видим.   Явления Облачность Т
(°С)
Тd
(°С)
f(%) Тe
(°С)
Pmin
(гПа)
dP
(гПа)
Po
(мм)
O2
(г/м3)
Тmin Tmax R s Состояние
почвы
09 22.11.17 130 (ЮВ) 7{12}  10 км    8/0 средняя 
[Ac trans]
+3.2 -3.7 61 1016.3  -1.1  736  293           
12 22.11.17 130 (ЮВ) 6{10}  10 км    9/0 средняя 
[Ac trans]
+3.3 -4.3 57 1015.7  -0.5  736  293           
15 22.11.17 130 (ЮВ) 10 км  {ливн. осадки}  9/3 1500 м кучево-дожд., средняя 
[Cb cap|Ac trans]
+1.8 -3.6 67 -1  1015.7  -0.2  735  295    +5  0.4     
18 22.11.17 130 (ЮВ) 7{10}  10 км  {ливн. осадки}  8/0 средняя 
[Ac trans]
+0.5 -4.3 70 -3  1015.4  -0.4  735  296           
21 22.11.17 130 (ЮВ) 10 км    8/0 средняя 
[Ac trans]
-0.4 -4.5 74 -4  1015.2  -0.3  735  297           
00 23.11.17 130 (ЮВ) 1500 м    8/8 1500 м 
[Sc]
-1.9 -5.2 78 -5  1014.9  -0.3  734  299           
03 23.11.17 100 (В) 10 км    8/0 средняя 
[Ac trans]
-4.4 -6.3 87 -8  1014.9  -0.3  734  301  -5.2        замёрзшая 
06 23.11.17 110 (В) 10 км    9/0 средняя 
[Ac trans]
-1.1 -4.8 76 -4  1015  0.5  735  298           
09 23.11.17 110 (В) 10 км    9/0 средняя 
[Ac trans]
+2.3 -4.9 59 1013.7  -0.9  734  294           
12 23.11.17 110 (В) 10 км    10/0 средняя 
[Ac As]
+1.8 -4.6 62 1013.5  -0.2  734  294           
15 23.11.17 070 (В) 10 км    10/0 средняя 
[Ac As]
+0.1 -4.3 72 -1  1014.4  0.7  734  296    +2.5       
18 23.11.17 080 (В) 10 км    9/0 средняя 
[Ac trans]
-0.4 -4.5 74 -2  1014.3  -0.2  734  297           
21 23.11.17 100 (В) 10 км    8/0 средняя 
[Ac trans]
-0.4 -4.2 75 -3  1014.1  -0.2  734  297           
00 24.11.17 150 (ЮВ) 10 км    8/0 средняя 
[Ac trans]
-3 -5.4 83 -4  1014.6  0.1  734  300           
03 24.11.17 090 (В) 10 км    4/0 средняя, верхняя 
[Ac trans|Ci fib]
-4.8 -6.3 89 -6  1015.2  0.4  732  301  -5        замёрзшая 
06 24.11.17 180 (Ю) 10 км    8/0 средняя, верхняя 
[Ac trans|Ci fib]
-1.9 -4.5 82 -1  1016.2  1.3  735  299  -5.3         
09 24.11.17 350 (С) 10 км    8/0 средняя, верхняя 
[Ac trans|Ci fib]
+0.6 -3.7 73 1016  0.1  736  296           
12 24.11.17 310 (СЗ) 10 км    9/0 средняя, верхняя 
[Ac trans|Ci fib]
-0 -3.9 75 +1  1017.2  736  297           
15 24.11.17 280 (З) 10 км    9/0 средняя 
[Ac trans]
+0 -3.5 77 -1  1017.8  0.7  737  297    +1.3       
18 24.11.17 320 (СЗ) 10 км  слаб. переохл. дождь (гололёд) [диам. гололёда 1 мм]  10/10 600 м 
[Ns]
-0.1 -1.7 89 -1  1018.7  0.8  737  297           
21 24.11.17 270 (З) 10 км  слаб. дождь  10/10 450 м 
[Ns]
+0.4 -0.5 94 -1  1018.8  0.2  738  297           
00 25.11.17 290 (З) 4000 м  дымка{дождь}  10/10 300 м 
[St]
+0.8 +0.1 95 -2  1019  0.3  738  296           
03 25.11.17 290 (З) 7-10{11}  4000 м  дымка  10/10 300 м 
[St]
+0.7 -0.2 94 -3  1019.4  0.3  738  297  -0.2      мокрая 
06 25.11.17 290 (З) 5{11}  2000 м  снег  10/9 180 м средняя 
[Frnb|As op]
+0.2 -0.4 96 -3  1020.4  0.4  739  297           
09 25.11.17 300 (СЗ) 4000 м  слаб. снег  10/10 180 м 
[Frnb|Ns]
+0.5 -0.1 96 -2  1020.5  -0.1  739  297           
Время (UTC), дата Ветер
(°,м/с) 
Видим.   Явления Облачность Т
(°С)
Тd
(°С)
f(%) Тe
(°С)
Pmin
(гПа)
dP
(гПа)
Po
(мм)
O2
(г/м3)
Тmin Tmax R s Состояние
почвы

Для получения пояснительной информации подведите курсор к названию столбца.

ПОГОДА в Орске - архив

Всё, что Вы хотите узнать о погоде в Орске - удобно и подробно!

Выберите нужную дату (начиная с 1 января 2015* года) и нажмите кнопку "Найти".
Будут отображены архивные сводки погоды по пункту Орск, начиная с указанной даты.


Отображать данные в формате CSV (для использования в таблицах Excel)


Внимание! Наш архив погоды предназначен исключительно для личного некоммерческого использования в познавательных целях. Если Вам необходимы официальные справки о состоянии погоды (для производственных, юридических, коммерческих и т.п. целей), обращайтесь в органы Росгидромета.

*Примечание: данная дата относится к архиву по метеостанциям СССР (Россия, СНГ, Балтия).
Архив по метеостанциям Зарубежной Европы и Азии (кроме Китая) хранится 10 дней, по другим регионам земного шара (Китай, Африка, Америка, Австралия, Океания) - 1 день.

Орск - район местоположения метеостанции


Название, широта, долгота, высота метеостанции:
Орск 51.1°ш. 58.6°д. 285 м над ур. моря [Российская Федерация]

Дополнительная информация

В oтличие oт бoльшинства пoгoдных сайтoв мы публикуем пoдрoбную метеoинфoрмацию в детальнoм прoфессиoнальнoм фoрмате.

Характеристики температуры и влажнoсти вoздуха измеряются на высoте 2 м в тени вдали oт зданий и деревьев.
Скoрoсть ветра измеряется на высoте 10 м (на урoвне рoста челoвека скoрoсть ветра ниже в 1.5-2 раза). Если метеoстанция нахoдится в гoрoде или в лесу, тo скoрoсть ветра занижена на 2-4 м/с пo сравнению с oткрытым местoм. Скoрoсть ветра над акватoриями крупных рек и oзёр, а также на вершинах хoлмoв на 2-5 м/с выше, чем в oбычных услoвиях.
Атмoсфернoе давление в разных тoчках местнoсти мoжет значительнo oтличаться oт давления на метеoстанции, в зависимoсти oт услoвий рельефа (при пoдъёме на 10 м давление пoнижается примернo на 1 мм рт.ст.).